Location: Prairie Dale
(45.6972°N, 104.5033°W)
Time: 14:41:14
(UTC+00:00)

STARS - Pass Details

Date: 07 July 2022
Orbit: 620 x 637 km, 98.2° (Epoch: 18 August)

Event Time Altitude Azimuth Distance (km) Brightness Sun altitude
Rises 06:46:12 0° 2° (N) 2,929 ? -21.6°
Reaches altitude 10° 06:48:44 10° 348° (NNW) 2,013 ? -21.6°
Maximum altitude 06:52:13 24° 295° (WNW) 1,311 ? -21.7°
Enters shadow 06:54:28 16° 254° (WSW) 1,635 ? -21.7°
